Date String (YYYY-MM-DD hh:mm:ss) UTC,Instrument flags,absolute air pressure of the measurement (hPa),sample flow rate (lpm),inlet stack bypass flow (lpm),air temperature of the measurement (°C),ambient temperature measured by the external sensor (°C),aerosol sample conditioner tube jacket temperature (°C),OPC LED temperature (°C),internal box temperature (°C),relative humidity of the measurement (%),span deviation,mass concentration of particles derived from Lorenz-Mie calculation of OPC scattering (μg/m³),mass concentration of particles derived from Lorenz-Mie calculation of OPC scattering (μg/m³),mass concentration of particles derived from Lorenz-Mie calculation of OPC scattering (μg/m³)
DateTimeUTC,F1_M11,P_M11,Q1_M11,Q2_M11,T1_M11,T2_M11,T3_M11,T4_M11,T5_M11,U1_M11,ZSPAN_M11,X2_M11,X0_M11,X1_M11
2023-07-06 06:00:00,SystemResetWarning,0836.4,5.00,000.00,030.2,028.8,000.0,038.7,031.7,34.6,-001.5,0009.70,0013.21,0009.36
2023-07-06 06:01:00,SystemResetWarning,0836.5,5.01,000.00,030.2,028.8,000.0,038.7,031.7,34.6,-001.4,0009.60,0013.07,0009.29
2023-07-06 06:02:00,SystemResetWarning,0836.6,5.01,000.00,030.2,028.8,000.0,038.7,031.7,34.6,-001.4,0009.51,0012.95,0009.19
2023-07-06 06:03:00,SystemResetWarning,0836.6,4.99,000.00,030.2,028.8,000.0,038.7,031.7,34.5,-001.5,0009.37,0012.76,0009.09
2023-07-06 06:04:00,SystemResetWarning,0836.6,4.99,000.00,030.2,028.9,000.0,038.7,031.7,34.4,-001.6,0009.26,0012.59,0009.00
2023-07-06 06:05:00,SystemResetWarning,0836.6,5.00,000.00,030.2,028.9,000.0,038.7,031.7,34.4,-001.5,0009.13,0012.38,0008.88
2023-07-06 06:06:00,SystemResetWarning,0836.6,5.01,000.00,030.2,028.9,000.0,038.8,031.7,34.4,-001.3,0009.01,0012.17,0008.77
2023-07-06 06:07:00,SystemResetWarning,0836.6,5.01,000.00,030.2,028.9,000.0,038.8,031.7,34.3,-001.5,0008.86,0011.95,0008.64
2023-07-06 06:08:00,SystemResetWarning,0836.6,5.00,000.00,030.2,028.9,000.0,038.8,031.7,34.3,-001.7,0008.73,0011.76,0008.51
2023-07-06 06:09:00,SystemResetWarning,0836.6,5.00,000.00,030.2,028.9,000.0,038.8,031.7,34.2,-001.8,0008.57,0011.49,0008.39
2023-07-06 06:10:00,SystemResetWarning,0836.5,4.99,000.00,030.3,028.9,000.0,038.8,031.7,34.2,-001.8,0008.44,0011.21,0008.27
2023-07-06 06:11:00,SystemResetWarning,0836.5,5.00,000.00,030.3,028.9,000.0,038.8,031.8,34.1,-001.8,0008.30,0010.76,0008.15
2023-07-06 06:12:00,SystemResetWarning,0836.5,4.99,000.00,030.3,028.9,000.0,038.8,031.8,34.1,-001.8,0008.21,0010.64,0008.05
2023-07-06 06:13:00,SystemResetWarning,0836.5,5.00,000.00,030.3,028.9,000.0,038.8,031.7,34.0,-001.8,0008.13,0010.56,0007.99
2023-07-06 06:14:00,SystemResetWarning,0836.4,4.99,000.00,030.3,028.9,000.0,038.8,031.8,33.9,-001.9,0008.08,0010.49,0007.94
2023-07-06 06:15:00,SystemResetWarning,0836.4,5.00,000.00,030.3,028.9,000.0,038.8,031.8,33.9,-001.8,0008.03,0010.42,0007.89
2023-07-06 06:16:00,SystemResetWarning,0836.4,5.00,000.00,030.3,028.9,000.0,038.8,031.8,33.9,-001.8,0007.97,0010.35,0007.84
2023-07-06 06:17:00,SystemResetWarning,0836.4,5.00,000.00,030.3,029.0,000.0,038.8,031.8,33.8,-002.1,0007.92,0010.32,0007.78
2023-07-06 06:18:00,SystemResetWarning,0836.4,5.00,000.00,030.3,029.0,000.0,038.8,031.8,33.8,-002.3,0007.89,0010.37,0007.74
2023-07-06 06:19:00,SystemResetWarning,0836.4,5.00,000.00,030.4,029.0,000.0,038.9,031.8,33.8,-002.2,0007.86,0010.58,0007.71
2023-07-06 06:20:00,SystemResetWarning,0836.4,5.00,000.00,030.4,029.0,000.0,038.9,031.8,33.7,-002.1,0007.80,0010.52,0007.66
2023-07-06 06:21:00,SystemResetWarning,0836.3,5.00,000.00,030.4,029.0,000.0,038.9,031.8,33.7,-002.2,0007.76,0010.49,0007.62
2023-07-06 06:22:00,SystemResetWarning,0836.3,5.00,000.00,030.4,029.0,000.0,038.9,031.8,33.7,-002.3,0007.76,0010.50,0007.61
2023-07-06 06:23:00,SystemResetWarning,0836.2,5.00,000.00,030.4,029.0,000.0,038.9,031.9,33.6,-002.4,0007.77,0010.50,0007.62
2023-07-06 06:24:00,SystemResetWarning,0836.2,5.00,000.00,030.4,029.0,000.0,038.9,031.9,33.6,-002.4,0007.76,0010.47,0007.61
2023-07-06 06:25:00,SystemResetWarning,0836.2,5.01,000.00,030.4,029.0,000.0,038.9,031.9,33.5,-002.3,0007.73,0010.51,0007.58
2023-07-06 06:26:00,SystemResetWarning,0836.2,5.00,000.00,030.4,029.0,000.0,038.9,031.9,33.5,-002.3,0007.74,0010.52,0007.59
2023-07-06 06:27:00,SystemResetWarning,0836.2,5.00,000.00,030.4,029.1,000.0,038.9,031.9,33.6,-002.4,0007.77,0010.57,0007.62
2023-07-06 06:28:00,SystemResetWarning,0836.2,4.99,000.00,030.4,029.1,000.0,038.9,031.9,33.5,-002.5,0007.82,0010.63,0007.67
2023-07-06 06:29:00,SystemResetWarning,0836.2,5.00,000.00,030.4,029.1,000.0,038.9,031.9,33.5,-002.2,0007.84,0010.59,0007.69
2023-07-06 06:30:00,SystemResetWarning,0836.2,5.00,000.00,030.4,029.1,000.0,038.9,031.9,33.4,-002.3,0007.85,0010.38,0007.71
2023-07-06 06:31:00,SystemResetWarning,0836.1,5.01,000.00,030.5,029.1,000.0,039.0,031.9,33.4,-002.4,0007.87,0010.46,0007.72
2023-07-06 06:32:00,SystemResetWarning,0836.1,5.00,000.00,030.5,029.1,000.0,039.0,031.9,33.4,-002.3,0007.91,0010.53,0007.76
2023-07-06 06:33:00,SystemResetWarning,0836.1,5.00,000.00,030.5,029.1,000.0,039.0,031.9,33.4,-002.0,0007.93,0010.55,0007.80
2023-07-06 06:34:00,SystemResetWarning,0836.0,5.00,000.00,030.5,029.1,000.0,039.0,031.9,33.5,-001.9,0007.96,0010.59,0007.82
2023-07-06 06:35:00,SystemResetWarning,0835.9,4.98,000.00,030.5,027.9,000.0,038.9,031.9,33.5,-001.9,0007.99,0010.63,0007.85
2023-07-06 06:36:00,SystemResetWarning,0835.9,5.01,000.00,030.4,026.1,000.0,038.8,031.6,33.6,-001.8,0008.02,0010.59,0007.89
2023-07-06 06:37:00,SystemResetWarning,0835.8,5.01,000.00,030.3,025.5,000.0,038.7,031.2,33.7,-001.8,0008.05,0010.62,0007.92
2023-07-06 06:38:00,SystemResetWarning,0835.7,4.99,000.00,030.1,025.7,000.0,038.7,031.0,34.1,-002.1,0008.10,0010.68,0007.94
2023-07-06 06:39:00,SystemResetWarning,0835.7,5.00,000.00,030.0,026.1,000.0,038.7,031.0,34.4,-001.9,0008.09,0011.36,0007.94
2023-07-06 06:40:00,SystemResetWarning,0835.6,5.01,000.00,029.9,026.5,000.0,038.7,031.1,34.5,-002.1,0008.09,0011.38,0007.95
2023-07-06 06:41:00,SystemResetWarning,0835.6,5.00,000.00,029.9,026.8,000.0,038.6,031.2,34.5,-002.1,0008.09,0011.33,0007.95
2023-07-06 06:42:00,SystemResetWarning,0835.6,4.98,000.00,029.9,027.2,000.0,038.6,031.2,34.6,-001.5,0008.10,0011.30,0007.96
2023-07-06 06:43:00,SystemResetWarning,0835.6,4.99,000.00,029.9,027.4,000.0,038.6,031.2,34.6,-001.6,0008.10,0011.31,0007.96
2023-07-06 06:44:00,SystemResetWarning,0835.6,5.01,000.00,029.9,027.7,000.0,038.6,031.3,34.6,-002.1,0008.13,0011.35,0007.97
2023-07-06 06:45:00,SystemResetWarning,0835.6,5.01,000.00,029.9,027.8,000.0,038.6,031.3,34.6,-002.2,0008.14,0011.37,0007.98
2023-07-06 06:46:00,SystemResetWarning,0835.6,4.99,000.00,029.9,028.0,000.0,038.6,031.3,34.7,-002.2,0008.11,0011.35,0007.95
2023-07-06 06:47:00,SystemResetWarning,0835.6,5.00,000.00,029.9,028.1,000.0,038.6,031.3,34.7,-002.1,0008.08,0011.32,0007.90
2023-07-06 06:48:00,SystemResetWarning,0835.6,5.01,000.00,029.9,028.2,000.0,038.5,031.4,34.6,-002.3,0008.04,0011.26,0007.88
2023-07-06 06:49:00,SystemResetWarning,0835.7,5.00,000.00,029.9,028.3,000.0,038.5,031.4,34.6,-002.1,0007.99,0011.17,0007.86
2023-07-06 06:50:00,SystemResetWarning,0835.5,5.00,000.00,029.9,028.4,000.0,038.5,031.4,34.6,-002.0,0007.98,0010.52,0007.86
2023-07-06 06:51:00,SystemResetWarning,0835.5,5.00,000.00,029.9,028.4,000.0,038.5,031.4,34.6,-002.0,0007.99,0010.47,0007.86
2023-07-06 06:52:00,SystemResetWarning,0835.5,5.00,000.00,029.9,028.4,000.0,038.5,031.4,34.5,-002.2,0008.02,0010.57,0007.86
2023-07-06 06:53:00,SystemResetWarning,0835.5,5.00,000.00,030.0,028.5,000.0,038.5,031.4,34.5,-002.7,0008.02,0010.56,0007.86
2023-07-06 06:54:00,SystemResetWarning,0835.5,5.00,000.00,030.0,028.5,000.0,038.5,031.5,34.4,-002.4,0008.02,0010.50,0007.86
2023-07-06 06:55:00,SystemResetWarning,0835.5,5.00,000.00,030.0,028.5,000.0,038.5,031.5,34.5,-002.0,0007.99,0010.44,0007.83
2023-07-06 06:56:00,SystemResetWarning,0835.5,5.00,000.00,030.0,028.5,000.0,038.5,031.5,34.4,-002.0,0007.93,0010.33,0007.78
2023-07-06 06:57:00,SystemResetWarning,0835.5,4.99,000.00,030.0,028.5,000.0,038.6,031.5,34.3,-002.4,0007.92,0010.29,0007.77
2023-07-06 06:58:00,SystemResetWarning,0835.5,5.00,000.00,030.0,028.5,000.0,038.6,031.5,34.4,-002.6,0007.91,0010.26,0007.78
2023-07-06 06:59:00,SystemResetWarning,0835.5,5.01,000.00,030.0,028.5,000.0,038.6,031.5,34.4,-002.6,0007.91,0010.27,0007.77
